Location: Antioch
(38.0049°N, 121.8058°W)
Time: 22:58:07
(UTC+00:00)

Cosmos 2208 Rocket - Pass Details

Date: 26 May 2026
Orbit: 751 x 800 km, 74.0° (Epoch: 7 June)

Event Time Altitude Azimuth Distance (km) Brightness Sun altitude
Exits shadow 07:24:53 34° 56° (NE) 1,247 5.2 -30.1°
Drops below altitude 10° 07:28:09 10° 31° (NNE) 2,304 7.0 -30.2°
Sets 07:30:35 0° 25° (NNE) 3,227 8.0 -30.3°
